Time,TemperatureF,DewpointF,PressureIn,WindDirection,WindDirectionDegrees,WindSpeedMPH,WindSpeedGustMPH,Humidity,HourlyPrecipIn,Conditions,Clouds,dailyrainin,SoftwareType,DateUTC
2013-03-25 00:00:00,43.5,32.5,30.06,NW,317,0.0,0.0,65,0.00,,,0.00,Wunderground v.1.15,2013-03-25 05:00:00,
2013-03-25 00:10:00,43.2,32.6,30.06,NW,317,0.0,0.0,66,0.00,,,0.00,Wunderground v.1.15,2013-03-25 05:10:00,
2013-03-25 00:20:00,43.0,32.8,30.07,NW,317,0.0,0.0,67,0.00,,,0.00,Wunderground v.1.15,2013-03-25 05:20:00,
2013-03-25 00:30:00,42.6,32.4,30.07,NW,317,0.0,0.0,67,0.00,,,0.00,Wunderground v.1.15,2013-03-25 05:30:00,
2013-03-25 00:35:00,42.5,32.3,30.07,NW,317,0.0,0.0,67,0.00,,,0.00,Wunderground v.1.15,2013-03-25 05:35:00,
2013-03-25 00:40:00,42.4,32.6,30.07,NW,317,0.0,0.0,68,0.00,,,0.00,Wunderground v.1.15,2013-03-25 05:40:00,
2013-03-25 00:50:00,42.1,32.3,30.08,NW,317,0.0,0.0,68,0.00,,,0.00,Wunderground v.1.15,2013-03-25 05:50:00,
2013-03-25 01:00:00,41.7,31.9,30.08,NW,317,0.0,0.0,68,0.00,,,0.00,Wunderground v.1.15,2013-03-25 06:00:00,
2013-03-25 01:10:00,41.4,31.6,30.08,NW,317,0.0,0.0,68,0.00,,,0.00,Wunderground v.1.15,2013-03-25 06:10:00,
2013-03-25 01:20:00,41.0,31.2,30.08,NW,317,0.0,0.0,68,0.00,,,0.00,Wunderground v.1.15,2013-03-25 06:20:00,
2013-03-25 01:30:00,40.6,30.9,30.08,NW,317,0.0,0.0,68,0.00,,,0.00,Wunderground v.1.15,2013-03-25 06:30:00,
2013-03-25 01:35:00,40.4,30.7,30.08,NW,317,0.0,0.0,68,0.00,,,0.00,Wunderground v.1.15,2013-03-25 06:35:00,
2013-03-25 01:40:00,40.2,30.5,30.08,NW,317,0.0,0.0,68,0.00,,,0.00,Wunderground v.1.15,2013-03-25 06:40:00,
2013-03-25 01:50:00,39.9,29.8,30.08,NW,317,0.0,0.0,67,0.00,,,0.00,Wunderground v.1.15,2013-03-25 06:50:00,
2013-03-25 02:00:00,39.8,29.7,30.08,NW,317,0.0,0.0,67,0.00,,,0.00,Wunderground v.1.15,2013-03-25 07:00:00,
2013-03-25 02:10:00,39.6,29.5,30.09,NW,317,0.0,0.0,67,0.00,,,0.00,Wunderground v.1.15,2013-03-25 07:10:00,
2013-03-25 02:20:00,39.5,29.4,30.09,NW,317,0.0,0.0,67,0.00,,,0.00,Wunderground v.1.15,2013-03-25 07:20:00,
2013-03-25 02:30:00,39.1,29.1,30.09,NW,317,0.0,0.0,67,0.00,,,0.00,Wunderground v.1.15,2013-03-25 07:30:00,
2013-03-25 02:40:00,38.7,28.7,30.08,NW,317,0.0,0.0,67,0.00,,,0.00,Wunderground v.1.15,2013-03-25 07:40:00,
2013-03-25 02:50:00,38.3,28.3,30.08,NW,317,0.0,0.0,67,0.00,,,0.00,Wunderground v.1.15,2013-03-25 07:50:00,
2013-03-25 03:00:00,37.8,27.5,30.08,NW,317,0.0,0.0,66,0.00,,,0.00,Wunderground v.1.15,2013-03-25 08:00:00,
2013-03-25 03:10:00,37.5,27.2,30.08,NW,317,0.0,0.0,66,0.00,,,0.00,Wunderground v.1.15,2013-03-25 08:10:00,
2013-03-25 03:20:00,37.2,26.5,30.08,NW,317,0.0,0.0,65,0.00,,,0.00,Wunderground v.1.15,2013-03-25 08:20:00,
2013-03-25 03:25:00,37.1,26.4,30.09,NW,317,0.0,0.0,65,0.00,,,0.00,Wunderground v.1.15,2013-03-25 08:25:00,
2013-03-25 03:30:00,37.0,26.3,30.08,NW,317,0.0,0.0,65,0.00,,,0.00,Wunderground v.1.15,2013-03-25 08:30:00,
2013-03-25 03:40:00,36.8,26.1,30.09,NW,317,0.0,0.0,65,0.00,,,0.00,Wunderground v.1.15,2013-03-25 08:40:00,
2013-03-25 03:50:00,36.4,25.7,30.09,NW,317,0.0,0.0,65,0.00,,,0.00,Wunderground v.1.15,2013-03-25 08:50:00,
2013-03-25 04:00:00,35.9,24.9,30.08,NW,317,0.0,0.0,64,0.00,,,0.00,Wunderground v.1.15,2013-03-25 09:00:00,
2013-03-25 04:10:00,35.3,24.0,30.09,NW,317,0.0,0.0,63,0.00,,,0.00,Wunderground v.1.15,2013-03-25 09:10:00,
2013-03-25 04:20:00,35.0,23.3,30.09,NW,317,0.0,0.0,62,0.00,,,0.00,Wunderground v.1.15,2013-03-25 09:20:00,
2013-03-25 04:30:00,34.7,23.0,30.10,NW,317,0.0,0.0,62,0.00,,,0.00,Wunderground v.1.15,2013-03-25 09:30:00,
2013-03-25 04:35:00,34.5,22.8,30.10,NW,317,0.0,0.0,62,0.00,,,0.00,Wunderground v.1.15,2013-03-25 09:35:00,
2013-03-25 04:40:00,34.4,22.7,30.10,NW,317,0.0,0.0,62,0.00,,,0.00,Wunderground v.1.15,2013-03-25 09:40:00,
2013-03-25 04:50:00,34.4,22.3,30.10,NW,317,0.0,0.0,61,0.00,,,0.00,Wunderground v.1.15,2013-03-25 09:50:00,
2013-03-25 05:00:00,34.3,21.8,30.10,NW,317,0.0,0.0,60,0.00,,,0.00,Wunderground v.1.15,2013-03-25 10:00:00,
2013-03-25 05:10:00,34.0,22.0,30.10,NW,317,0.0,0.0,61,0.00,,,0.00,Wunderground v.1.15,2013-03-25 10:10:00,
2013-03-25 05:15:00,33.7,21.7,30.10,NW,317,0.0,0.0,61,0.00,,,0.00,Wunderground v.1.15,2013-03-25 10:15:00,
2013-03-25 05:20:00,33.4,21.0,30.11,NW,317,0.0,0.0,60,0.00,,,0.00,Wunderground v.1.15,2013-03-25 10:20:00,
2013-03-25 05:30:00,33.2,20.8,30.11,NW,317,0.0,0.0,60,0.00,,,0.00,Wunderground v.1.15,2013-03-25 10:30:00,
2013-03-25 05:40:00,33.0,20.6,30.12,NW,317,0.0,0.0,60,0.00,,,0.00,Wunderground v.1.15,2013-03-25 10:40:00,
2013-03-25 05:50:00,32.9,20.5,30.12,NW,317,0.0,0.0,60,0.00,,,0.00,Wunderground v.1.15,2013-03-25 10:50:00,
2013-03-25 06:00:00,33.2,20.8,30.13,NW,317,0.0,0.0,60,0.00,,,0.00,Wunderground v.1.15,2013-03-25 11:00:00,
2013-03-25 06:10:00,33.5,21.5,30.14,NW,317,0.0,0.0,61,0.00,,,0.00,Wunderground v.1.15,2013-03-25 11:10:00,
2013-03-25 06:15:00,33.7,22.1,30.14,NW,317,0.0,0.0,62,0.00,,,0.00,Wunderground v.1.15,2013-03-25 11:15:00,
2013-03-25 06:20:00,33.9,22.2,30.14,NW,317,0.0,0.0,62,0.00,,,0.00,Wunderground v.1.15,2013-03-25 11:20:00,
2013-03-25 06:30:00,34.4,23.5,30.14,NW,317,0.0,0.0,64,0.00,,,0.00,Wunderground v.1.15,2013-03-25 11:30:00,
2013-03-25 06:40:00,34.6,24.0,30.14,NW,317,0.0,0.0,65,0.00,,,0.00,Wunderground v.1.15,2013-03-25 11:40:00,
2013-03-25 06:50:00,34.9,24.7,30.14,NW,318,0.0,0.0,66,0.00,,,0.00,Wunderground v.1.15,2013-03-25 11:50:00,
2013-03-25 07:00:00,34.7,24.5,30.14,NW,318,0.0,0.0,66,0.00,,,0.00,Wunderground v.1.15,2013-03-25 12:00:00,
2013-03-25 07:10:00,34.4,24.2,30.14,NW,318,0.0,0.0,66,0.00,,,0.00,Wunderground v.1.15,2013-03-25 12:10:00,
2013-03-25 07:20:00,34.4,24.2,30.15,NW,318,0.0,0.0,66,0.00,,,0.00,Wunderground v.1.15,2013-03-25 12:20:00,
2013-03-25 07:30:00,34.1,23.9,30.16,NW,318,0.0,0.0,66,0.00,,,0.00,Wunderground v.1.15,2013-03-25 12:30:00,
2013-03-25 07:40:00,34.2,24.0,30.17,NW,318,0.0,0.0,66,0.00,,,0.00,Wunderground v.1.15,2013-03-25 12:40:00,
2013-03-25 07:50:00,34.5,24.3,30.18,NW,318,0.0,0.0,66,0.00,,,0.00,Wunderground v.1.15,2013-03-25 12:50:00,
2013-03-25 08:00:00,35.8,25.5,30.18,NW,318,0.0,0.0,66,0.00,,,0.00,Wunderground v.1.15,2013-03-25 13:00:00,
2013-03-25 08:05:00,36.5,26.2,30.19,NW,318,0.0,0.0,66,0.00,,,0.00,Wunderground v.1.15,2013-03-25 13:05:00,
2013-03-25 08:10:00,37.0,27.1,30.19,NW,318,0.0,0.0,67,0.00,,,0.00,Wunderground v.1.15,2013-03-25 13:10:00,
2013-03-25 08:20:00,38.2,28.6,30.19,NW,318,0.0,0.0,68,0.00,,,0.00,Wunderground v.1.15,2013-03-25 13:20:00,
2013-03-25 08:30:00,39.2,29.5,30.21,NW,318,0.0,0.0,68,0.00,,,0.00,Wunderground v.1.15,2013-03-25 13:30:00,
2013-03-25 08:40:00,40.3,30.6,30.22,NW,318,0.0,0.0,68,0.00,,,0.00,Wunderground v.1.15,2013-03-25 13:40:00,
2013-03-25 08:50:00,41.3,30.8,30.23,NW,318,0.0,0.0,66,0.00,,,0.00,Wunderground v.1.15,2013-03-25 13:50:00,
2013-03-25 09:00:00,42.3,31.4,30.23,NW,319,0.0,1.0,65,0.00,,,0.00,Wunderground v.1.15,2013-03-25 14:00:00,
2013-03-25 09:10:00,43.1,31.0,30.23,NNW,345,2.0,2.0,62,0.00,,,0.00,Wunderground v.1.15,2013-03-25 14:10:00,
2013-03-25 09:15:00,43.7,31.5,30.24,NNW,345,1.0,2.0,62,0.00,,,0.00,Wunderground v.1.15,2013-03-25 14:15:00,
2013-03-25 09:25:00,44.6,30.7,30.24,NW,319,2.0,2.0,58,0.00,,,0.00,Wunderground v.1.15,2013-03-25 14:25:00,
2013-03-25 09:30:00,45.1,30.8,30.24,NNW,327,1.0,1.0,57,0.00,,,0.00,Wunderground v.1.15,2013-03-25 14:30:00,
2013-03-25 09:40:00,45.9,30.2,30.25,WNW,291,2.0,2.0,54,0.00,,,0.00,Wunderground v.1.15,2013-03-25 14:40:00,
2013-03-25 09:50:00,46.8,29.6,30.25,NE,40,1.0,3.0,51,0.00,,,0.00,Wunderground v.1.15,2013-03-25 14:50:00,
2013-03-25 10:00:00,47.5,28.8,30.25,North,360,1.0,3.0,48,0.00,,,0.00,Wunderground v.1.15,2013-03-25 15:00:00,
2013-03-25 10:05:00,47.7,28.9,30.25,NNW,345,1.0,3.0,48,0.00,,,0.00,Wunderground v.1.15,2013-03-25 15:05:00,
2013-03-25 10:10:00,47.6,28.9,30.25,NW,323,1.0,1.0,48,0.00,,,0.00,Wunderground v.1.15,2013-03-25 15:10:00,
2013-03-25 10:20:00,48.9,29.0,30.26,NNE,30,1.0,1.0,46,0.00,,,0.00,Wunderground v.1.15,2013-03-25 15:20:00,
2013-03-25 10:30:00,49.4,27.8,30.26,NW,325,2.0,3.0,43,0.00,,,0.00,Wunderground v.1.15,2013-03-25 15:30:00,
2013-03-25 10:40:00,49.2,25.9,30.26,NW,317,3.0,7.0,40,0.00,,,0.00,Wunderground v.1.15,2013-03-25 15:40:00,
2013-03-25 10:50:00,49.8,26.4,30.25,NNW,332,2.0,4.0,40,0.00,,,0.00,Wunderground v.1.15,2013-03-25 15:50:00,
2013-03-25 11:00:00,51.3,28.4,30.25,North,355,1.0,1.0,41,0.00,,,0.00,Wunderground v.1.15,2013-03-25 16:00:00,
2013-03-25 11:05:00,52.3,29.3,30.26,NNW,336,1.0,1.0,41,0.00,,,0.00,Wunderground v.1.15,2013-03-25 16:05:00,
2013-03-25 11:10:00,52.5,28.8,30.25,NE,45,1.0,1.0,40,0.00,,,0.00,Wunderground v.1.15,2013-03-25 16:10:00,
2013-03-25 11:20:00,52.6,27.7,30.25,WNW,298,1.0,1.0,38,0.00,,,0.00,Wunderground v.1.15,2013-03-25 16:20:00,
2013-03-25 11:25:00,53.8,29.4,30.26,North,5,0.0,6.0,39,0.00,,,0.00,Wunderground v.1.15,2013-03-25 16:25:00,
2013-03-25 11:30:00,55.0,28.5,30.26,NNW,340,1.0,4.0,36,0.00,,,0.00,Wunderground v.1.15,2013-03-25 16:30:00,
2013-03-25 11:40:00,56.1,28.1,30.25,NNW,336,1.0,1.0,34,0.00,,,0.00,Wunderground v.1.15,2013-03-25 16:40:00,
2013-03-25 11:50:00,56.5,29.1,30.25,NNW,340,0.0,0.0,35,0.00,,,0.00,Wunderground v.1.15,2013-03-25 16:50:00,
2013-03-25 12:00:00,57.6,27.9,30.25,West,269,1.0,1.0,32,0.00,,,0.00,Wunderground v.1.15,2013-03-25 17:00:00,
2013-03-25 12:05:00,57.7,26.4,30.25,NW,320,2.0,3.0,30,0.00,,,0.00,Wunderground v.1.15,2013-03-25 17:05:00,
2013-03-25 12:15:00,57.8,28.1,30.25,NNW,338,1.0,3.0,32,0.00,,,0.00,Wunderground v.1.15,2013-03-25 17:15:00,
2013-03-25 12:20:00,58.3,27.0,30.24,NNW,341,1.0,1.0,30,0.00,,,0.00,Wunderground v.1.15,2013-03-25 17:20:00,
2013-03-25 12:30:00,58.6,28.8,30.24,NW,304,1.0,2.0,32,0.00,,,0.00,Wunderground v.1.15,2013-03-25 17:30:00,
2013-03-25 12:40:00,60.0,28.4,30.24,NW,323,2.0,2.0,30,0.00,,,0.00,Wunderground v.1.15,2013-03-25 17:40:00,
2013-03-25 12:45:00,60.4,27.1,30.23,NW,326,1.0,2.0,28,0.00,,,0.00,Wunderground v.1.15,2013-03-25 17:45:00,
2013-03-25 12:50:00,60.2,29.4,30.23,NNW,338,1.0,1.0,31,0.00,,,0.00,Wunderground v.1.15,2013-03-25 17:50:00,
2013-03-25 13:00:00,61.9,30.1,30.23,NW,325,1.0,1.0,30,0.00,,,0.00,Wunderground v.1.15,2013-03-25 18:00:00,
2013-03-25 13:10:00,61.9,28.4,30.23,WNW,293,3.0,3.0,28,0.00,,,0.00,Wunderground v.1.15,2013-03-25 18:10:00,
2013-03-25 13:20:00,63.0,28.5,30.22,NW,321,1.0,2.0,27,0.00,,,0.00,Wunderground v.1.15,2013-03-25 18:20:00,
2013-03-25 13:25:00,63.4,28.8,30.21,NW,321,1.0,2.0,27,0.00,,,0.00,Wunderground v.1.15,2013-03-25 18:25:00,
2013-03-25 13:30:00,63.6,29.0,30.21,North,349,1.0,1.0,27,0.00,,,0.00,Wunderground v.1.15,2013-03-25 18:30:00,
2013-03-25 13:40:00,64.4,27.8,30.20,NW,320,2.0,2.0,25,0.00,,,0.00,Wunderground v.1.15,2013-03-25 18:40:00,
2013-03-25 13:50:00,63.8,28.2,30.19,NW,325,3.0,3.0,26,0.00,,,0.00,Wunderground v.1.15,2013-03-25 18:50:00,
2013-03-25 14:00:00,63.9,26.4,30.19,NNW,346,3.0,3.0,24,0.00,,,0.00,Wunderground v.1.15,2013-03-25 19:00:00,
2013-03-25 14:10:00,65.5,29.7,30.19,NNW,333,1.0,3.0,26,0.00,,,0.00,Wunderground v.1.15,2013-03-25 19:10:00,
2013-03-25 14:15:00,65.9,30.0,30.18,NW,322,1.0,3.0,26,0.00,,,0.00,Wunderground v.1.15,2013-03-25 19:15:00,
2013-03-25 14:20:00,66.3,29.4,30.18,NW,318,1.0,4.0,25,0.00,,,0.00,Wunderground v.1.15,2013-03-25 19:20:00,
2013-03-25 14:30:00,65.9,28.1,30.17,NW,310,2.0,2.0,24,0.00,,,0.00,Wunderground v.1.15,2013-03-25 19:30:00,
2013-03-25 14:40:00,66.0,28.1,30.17,NW,323,2.0,3.0,24,0.00,,,0.00,Wunderground v.1.15,2013-03-25 19:40:00,
2013-03-25 14:50:00,66.1,27.2,30.16,NW,316,2.0,2.0,23,0.00,,,0.00,Wunderground v.1.15,2013-03-25 19:50:00,
2013-03-25 15:00:00,66.5,27.5,30.16,NW,325,2.0,2.0,23,0.00,,,0.00,Wunderground v.1.15,2013-03-25 20:00:00,
2013-03-25 15:05:00,66.6,27.6,30.16,NW,319,3.0,3.0,23,0.00,,,0.00,Wunderground v.1.15,2013-03-25 20:05:00,
2013-03-25 15:10:00,66.8,26.7,30.15,NNW,340,2.0,2.0,22,0.00,,,0.00,Wunderground v.1.15,2013-03-25 20:10:00,
2013-03-25 15:20:00,67.0,27.9,30.15,NW,323,2.0,5.0,23,0.00,,,0.00,Wunderground v.1.15,2013-03-25 20:20:00,
2013-03-25 15:30:00,67.1,29.1,30.15,NNW,330,2.0,2.0,24,0.00,,,0.00,Wunderground v.1.15,2013-03-25 20:30:00,
2013-03-25 15:40:00,66.5,25.3,30.15,WNW,296,2.0,2.0,21,0.00,,,0.00,Wunderground v.1.15,2013-03-25 20:40:00,
2013-03-25 15:50:00,66.9,26.8,30.14,North,349,1.0,9.0,22,0.00,,,0.00,Wunderground v.1.15,2013-03-25 20:50:00,
2013-03-25 15:55:00,66.9,28.9,30.14,NNW,331,2.0,9.0,24,0.00,,,0.00,Wunderground v.1.15,2013-03-25 20:55:00,
2013-03-25 16:00:00,67.1,29.1,30.15,NNW,336,1.0,1.0,24,0.00,,,0.00,Wunderground v.1.15,2013-03-25 21:00:00,
2013-03-25 16:10:00,66.4,27.4,30.15,West,271,2.0,2.0,23,0.00,,,0.00,Wunderground v.1.15,2013-03-25 21:10:00,
2013-03-25 16:20:00,66.6,27.6,30.15,NNW,340,1.0,4.0,23,0.00,,,0.00,Wunderground v.1.15,2013-03-25 21:20:00,
2013-03-25 16:30:00,66.1,27.2,30.15,NNW,333,2.0,2.0,23,0.00,,,0.00,Wunderground v.1.15,2013-03-25 21:30:00,
2013-03-25 16:40:00,64.8,26.1,30.14,NW,309,3.0,3.0,23,0.00,,,0.00,Wunderground v.1.15,2013-03-25 21:40:00,
2013-03-25 16:50:00,64.8,26.1,30.14,NW,316,1.0,1.0,23,0.00,,,0.00,Wunderground v.1.15,2013-03-25 21:50:00,
2013-03-25 17:00:00,64.1,27.5,30.14,NNW,340,1.0,1.0,25,0.00,,,0.00,Wunderground v.1.15,2013-03-25 22:00:00,
2013-03-25 17:10:00,63.1,26.7,30.14,NNW,329,1.0,1.0,25,0.00,,,0.00,Wunderground v.1.15,2013-03-25 22:10:00,
2013-03-25 17:20:00,62.3,26.0,30.14,NW,323,1.0,1.0,25,0.00,,,0.00,Wunderground v.1.15,2013-03-25 22:20:00,
2013-03-25 17:30:00,62.0,26.7,30.14,NW,325,1.0,1.0,26,0.00,,,0.00,Wunderground v.1.15,2013-03-25 22:30:00,
2013-03-25 17:40:00,61.3,27.0,30.14,NW,323,1.0,3.0,27,0.00,,,0.00,Wunderground v.1.15,2013-03-25 22:40:00,
2013-03-25 17:50:00,60.8,25.7,30.14,NNW,327,1.0,1.0,26,0.00,,,0.00,Wunderground v.1.15,2013-03-25 22:50:00,
2013-03-25 18:00:00,60.1,25.1,30.14,NW,322,1.0,1.0,26,0.00,,,0.00,Wunderground v.1.15,2013-03-25 23:00:00,
2013-03-25 18:10:00,59.8,25.7,30.14,NNW,335,1.0,1.0,27,0.00,,,0.00,Wunderground v.1.15,2013-03-25 23:10:00,
2013-03-25 18:20:00,59.3,26.2,30.14,NNW,334,0.0,0.0,28,0.00,,,0.00,Wunderground v.1.15,2013-03-25 23:20:00,
2013-03-25 18:25:00,59.0,25.9,30.15,NNW,333,1.0,4.0,28,0.00,,,0.00,Wunderground v.1.15,2013-03-25 23:25:00,
2013-03-25 18:30:00,59.0,25.0,30.15,NW,325,1.0,4.0,27,0.00,,,0.00,Wunderground v.1.15,2013-03-25 23:30:00,
2013-03-25 18:40:00,58.4,25.4,30.15,NW,326,1.0,1.0,28,0.00,,,0.00,Wunderground v.1.15,2013-03-25 23:40:00,
2013-03-25 18:50:00,58.0,25.0,30.15,NW,326,0.0,0.0,28,0.00,,,0.00,Wunderground v.1.15,2013-03-25 23:50:00,
2013-03-25 19:00:00,57.6,25.5,30.16,NW,326,0.0,0.0,29,0.00,,,0.00,Wunderground v.1.15,2013-03-26 00:00:00,
2013-03-25 19:10:00,57.1,25.1,30.16,NW,326,0.0,0.0,29,0.00,,,0.00,Wunderground v.1.15,2013-03-26 00:10:00,
2013-03-25 19:20:00,56.4,24.5,30.17,NW,326,0.0,0.0,29,0.00,,,0.00,Wunderground v.1.15,2013-03-26 00:20:00,
2013-03-25 19:25:00,56.1,25.1,30.17,NW,326,0.0,0.0,30,0.00,,,0.00,Wunderground v.1.15,2013-03-26 00:25:00,
2013-03-25 19:35:00,55.4,25.2,30.17,NW,326,0.0,0.0,31,0.00,,,0.00,Wunderground v.1.15,2013-03-26 00:35:00,
2013-03-25 19:40:00,55.0,24.9,30.17,NW,326,0.0,0.0,31,0.00,,,0.00,Wunderground v.1.15,2013-03-26 00:40:00,
2013-03-25 19:50:00,54.3,25.8,30.18,NW,326,0.0,0.0,33,0.00,,,0.00,Wunderground v.1.15,2013-03-26 00:50:00,
2013-03-25 19:55:00,54.0,25.5,30.18,NW,326,0.0,0.0,33,0.00,,,0.00,Wunderground v.1.15,2013-03-26 00:55:00,
2013-03-25 20:00:00,53.7,25.2,30.18,NW,326,0.0,0.0,33,0.00,,,0.00,Wunderground v.1.15,2013-03-26 01:00:00,
2013-03-25 20:10:00,53.1,25.4,30.19,NW,326,0.0,0.0,34,0.00,,,0.00,Wunderground v.1.15,2013-03-26 01:10:00,
2013-03-25 20:15:00,52.8,25.2,30.19,NW,326,0.0,0.0,34,0.00,,,0.00,Wunderground v.1.15,2013-03-26 01:15:00,
2013-03-25 20:20:00,52.6,25.7,30.19,NW,326,0.0,0.0,35,0.00,,,0.00,Wunderground v.1.15,2013-03-26 01:20:00,
2013-03-25 20:30:00,52.1,25.3,30.20,NW,326,0.0,0.0,35,0.00,,,0.00,Wunderground v.1.15,2013-03-26 01:30:00,
2013-03-25 20:40:00,51.5,25.4,30.20,NW,326,0.0,0.0,36,0.00,,,0.00,Wunderground v.1.15,2013-03-26 01:40:00,
2013-03-25 20:50:00,50.8,26.7,30.21,NW,326,0.0,0.0,39,0.00,,,0.00,Wunderground v.1.15,2013-03-26 01:50:00,
2013-03-25 21:00:00,50.1,26.1,30.21,NW,326,0.0,0.0,39,0.00,,,0.00,Wunderground v.1.15,2013-03-26 02:00:00,
2013-03-25 21:10:00,49.4,26.1,30.22,NW,326,0.0,0.0,40,0.00,,,0.00,Wunderground v.1.15,2013-03-26 02:10:00,
2013-03-25 21:15:00,49.2,26.5,30.22,NW,326,0.0,0.0,41,0.00,,,0.00,Wunderground v.1.15,2013-03-26 02:15:00,
2013-03-25 21:20:00,48.9,25.6,30.22,NW,326,0.0,0.0,40,0.00,,,0.00,Wunderground v.1.15,2013-03-26 02:20:00,
2013-03-25 21:30:00,48.6,25.3,30.23,NW,326,0.0,0.0,40,0.00,,,0.00,Wunderground v.1.15,2013-03-26 02:30:00,
2013-03-25 21:40:00,48.4,25.8,30.23,NW,326,0.0,0.0,41,0.00,,,0.00,Wunderground v.1.15,2013-03-26 02:40:00,
2013-03-25 21:50:00,48.0,26.0,30.24,NW,326,0.0,0.0,42,0.00,,,0.00,Wunderground v.1.15,2013-03-26 02:50:00,
2013-03-25 22:00:00,47.6,25.6,30.25,NW,326,0.0,0.0,42,0.00,,,0.00,Wunderground v.1.15,2013-03-26 03:00:00,
2013-03-25 22:05:00,47.4,25.4,30.25,NW,326,0.0,0.0,42,0.00,,,0.00,Wunderground v.1.15,2013-03-26 03:05:00,
2013-03-25 22:10:00,47.2,25.3,30.26,NW,326,0.0,0.0,42,0.00,,,0.00,Wunderground v.1.15,2013-03-26 03:10:00,
2013-03-25 22:20:00,46.7,25.9,30.26,NW,326,0.0,0.0,44,0.00,,,0.00,Wunderground v.1.15,2013-03-26 03:20:00,
2013-03-25 22:30:00,46.2,25.5,30.26,NW,326,0.0,0.0,44,0.00,,,0.00,Wunderground v.1.15,2013-03-26 03:30:00,
2013-03-25 22:40:00,45.8,25.6,30.27,NW,326,0.0,0.0,45,0.00,,,0.00,Wunderground v.1.15,2013-03-26 03:40:00,
2013-03-25 22:50:00,45.6,25.5,30.28,NW,326,0.0,0.0,45,0.00,,,0.00,Wunderground v.1.15,2013-03-26 03:50:00,
2013-03-25 23:00:00,45.2,25.6,30.28,NW,326,0.0,0.0,46,0.00,,,0.00,Wunderground v.1.15,2013-03-26 04:00:00,
2013-03-25 23:05:00,45.0,26.0,30.28,NW,326,0.0,0.0,47,0.00,,,0.00,Wunderground v.1.15,2013-03-26 04:05:00,
2013-03-25 23:10:00,44.9,25.9,30.28,NW,326,0.0,0.0,47,0.00,,,0.00,Wunderground v.1.15,2013-03-26 04:10:00,
2013-03-25 23:15:00,44.7,25.7,30.28,NW,326,0.0,0.0,47,0.00,,,0.00,Wunderground v.1.15,2013-03-26 04:15:00,
2013-03-25 23:20:00,44.6,25.6,30.28,NW,326,0.0,0.0,47,0.00,,,0.00,Wunderground v.1.15,2013-03-26 04:20:00,
2013-03-25 23:30:00,44.4,25.4,30.29,NW,326,0.0,0.0,47,0.00,,,0.00,Wunderground v.1.15,2013-03-26 04:30:00,
2013-03-25 23:40:00,44.1,25.1,30.29,NW,326,0.0,0.0,47,0.00,,,0.00,Wunderground v.1.15,2013-03-26 04:40:00,
2013-03-25 23:45:00,44.0,25.0,30.29,NW,326,0.0,0.0,47,0.00,,,0.00,Wunderground v.1.15,2013-03-26 04:45:00,
2013-03-25 23:50:00,43.9,25.5,30.29,NW,326,0.0,0.0,48,0.00,,,0.00,Wunderground v.1.15,2013-03-26 04:50:00,
2013-03-25 23:55:00,43.8,25.4,30.29,NW,326,0.0,0.0,48,0.00,,,0.00,Wunderground v.1.15,2013-03-26 04:55:00,